Date,TemperatureHighF,TemperatureAvgF,TemperatureLowF,DewpointHighF,DewpointAvgF,DewpointLowF,HumidityHigh,HumidityAvg,HumidityLow,PressureMaxIn,PressureMinIn,WindSpeedMaxMPH,WindSpeedAvgMPH,GustSpeedMaxMPH,PrecipitationSumIn
2013-1-2,57.4,51.5,48.0,57.1,51.2,47.8,99,99,98,30.32,30.22,5,3,9,0.00
2013-1-3,46.9,43.5,37.8,46.7,43.1,37.0,99,99,94,30.48,30.32,6,2,6,0.38
2013-1-4,57.0,48.6,34.7,40.4,38.7,34.4,99,70,51,30.56,30.46,8,1,9,0.00
2013-1-5,55.9,52.1,47.1,47.5,40.0,36.5,88,64,56,30.51,30.40,7,2,8,0.00
2013-1-6,53.8,52.0,50.4,51.4,47.6,45.5,99,85,77,30.39,30.32,8,3,9,0.01
2013-1-7,59.9,52.8,39.4,48.8,45.1,39.1,99,76,59,30.46,30.37,10,3,10,0.01
2013-1-8,61.0,52.6,47.7,56.8,50.6,45.5,99,93,84,30.41,30.33,5,2,6,0.00
2013-1-9,69.4,65.7,62.1,69.1,65.4,61.8,99,99,99,30.41,30.32,4,2,4,0.02
2013-1-10,69.3,66.9,63.5,69.0,66.6,63.2,99,99,99,30.41,30.21,9,3,9,0.40
2013-1-11,78.6,69.7,63.5,78.3,69.4,63.2,99,99,99,30.32,30.23,7,2,7,0.01
2013-1-12,75.0,70.2,66.7,74.8,70.0,66.5,99,99,99,30.29,30.23,8,2,8,0.00
2013-1-13,74.7,71.5,69.4,74.4,71.2,69.1,99,99,99,30.18,30.12,5,3,5,0.00
2013-1-14,77.2,70.5,59.0,76.9,70.2,58.7,99,99,99,30.27,30.17,6,2,6,0.00
2013-1-30,75.7,57.3,50.5,75.4,56.2,45.9,99,96,83,30.18,29.81,14,4,17,0.27
2013-3-20,50.5,50.5,50.5,38.4,38.4,38.4,63,63,63,30.16,30.16,0,0,0,0.00
2013-5-1,72.7,72.7,72.7,72.4,72.4,72.4,99,99,99,30.11,30.11,2,2,2,0.00
2013-5-25,91.8,76.9,65.8,67.2,62.7,56.3,99,64,39,30.38,30.29,7,2,7,0.00
2013-5-26,91.9,77.6,65.8,80.2,73.1,65.6,99,88,56,30.37,30.27,6,2,6,0.00
2013-5-27,91.6,78.7,68.4,82.0,74.0,68.1,99,87,61,30.33,30.22,5,2,5,0.00
2013-5-28,88.3,78.5,67.6,83.6,76.8,67.3,99,95,79,30.26,30.20,6,2,6,0.00
2013-5-29,88.7,80.0,72.1,84.8,79.0,71.8,99,97,87,30.24,30.16,11,3,11,0.00
2013-5-30,88.3,81.7,77.5,84.4,79.9,77.2,99,95,84,30.24,30.16,10,4,10,0.00
2013-5-31,86.4,81.0,77.5,83.9,80.2,77.2,99,97,91,30.23,30.16,11,4,11,0.00
2013-6-3,94.1,81.1,73.9,87.0,79.9,73.6,99,96,80,30.08,30.00,4,1,4,0.17
2013-6-4,95.0,83.3,74.3,88.3,81.6,74.0,99,95,78,30.11,30.05,6,2,6,0.00
2013-6-5,91.0,82.4,72.1,87.9,81.3,71.8,99,97,86,30.11,30.02,8,2,8,0.39
2013-6-6,88.5,78.9,67.6,83.4,76.6,67.3,99,93,80,30.05,29.85,6,2,6,0.15
2013-6-7,87.1,79.0,71.2,81.8,77.2,70.9,99,94,79,30.06,29.91,4,1,4,0.00
2013-6-8,93.4,82.4,72.1,88.0,80.1,71.8,99,93,77,30.19,30.04,8,2,8,0.00
2013-6-9,74.8,72.5,70.3,74.5,72.2,70.1,99,99,99,30.26,30.13,10,2,10,1.95
2013-6-14,95.7,86.9,79.9,88.8,82.7,77.2,99,88,69,30.09,29.99,7,2,7,0.00
2013-6-15,95.0,84.2,74.3,89.4,82.4,74.0,99,95,75,30.18,30.08,5,2,5,0.00
2013-6-16,96.4,85.4,78.3,89.7,84.3,78.0,99,97,79,30.22,30.15,4,2,4,0.00
2013-6-17,91.8,84.7,78.8,89.1,83.7,78.5,99,97,89,30.18,30.11,4,2,4,0.00
2013-6-18,93.7,84.0,73.0,90.7,81.4,72.7,99,93,68,30.16,30.05,5,2,5,0.44
2013-6-19,92.3,79.8,72.9,89.6,78.9,72.6,99,97,86,30.18,30.08,5,1,5,0.68
2013-6-20,96.4,83.0,73.9,88.5,79.7,73.6,99,91,72,30.25,30.16,4,1,5,0.00
2013-6-21,90.1,81.4,74.3,87.1,80.4,74.0,99,97,87,30.28,30.20,4,1,4,0.02
2013-6-22,91.6,82.1,73.9,85.6,80.0,73.6,99,94,82,30.27,30.17,5,2,5,0.00
2013-6-23,92.1,81.8,75.9,90.5,81.3,75.6,99,98,88,30.27,30.18,5,2,5,0.00
2013-6-24,94.8,84.8,76.5,91.3,83.3,76.2,99,96,77,30.32,30.24,4,1,4,0.00
2013-6-25,91.8,85.8,78.8,89.8,84.0,78.6,99,95,83,30.29,30.18,4,1,5,0.00
2013-6-26,90.9,85.0,78.6,90.7,84.8,78.4,99,99,99,30.23,30.20,2,0,2,0.00
2013-7-3,86.9,77.4,74.3,85.0,77.1,74.1,99,99,94,30.17,30.11,7,3,11,0.34
2013-7-4,84.6,77.7,74.3,84.3,77.5,74.1,99,99,99,30.14,30.09,4,2,11,0.34
2013-8-3,96.8,86.0,78.4,93.4,84.8,78.1,99,96,81,30.21,30.13,4,1,4,0.00
2013-8-4,99.9,87.6,77.5,91.9,83.8,77.2,99,90,71,30.22,30.12,4,1,4,0.04
2013-8-5,99.0,85.8,75.7,91.7,83.3,75.4,99,93,75,30.19,30.09,4,1,4,0.00
2013-8-6,100.6,84.5,76.5,90.7,82.0,76.2,99,93,72,30.17,30.06,4,1,4,0.13
2013-8-7,97.0,85.5,75.0,89.3,82.7,74.7,99,92,75,30.14,30.05,5,1,5,0.00
2013-8-8,99.1,86.1,79.5,91.0,84.4,79.2,99,95,72,30.14,30.07,7,2,7,0.00
2013-8-9,95.5,85.6,79.3,91.8,84.8,79.0,99,97,87,30.19,30.10,4,2,11,0.11
2013-8-25,86.5,78.4,75.0,86.2,78.1,74.7,99,99,99,30.36,30.26,6,2,6,0.27
2013-8-26,91.8,81.6,73.0,80.1,77.0,72.7,99,87,67,30.37,30.25,7,2,7,0.00
2013-8-27,95.7,80.8,68.5,82.7,76.0,68.2,99,87,60,30.28,30.17,4,1,4,0.00
2013-8-28,96.8,82.2,70.7,85.0,78.2,70.4,99,89,69,30.22,30.14,4,1,4,0.00
2013-8-29,98.6,84.3,72.7,85.6,80.4,72.4,99,90,65,30.22,30.11,4,1,4,0.00
2013-8-30,96.6,84.7,75.9,86.8,81.8,75.6,99,92,72,30.17,30.05,4,1,4,0.00
2013-8-31,93.7,82.1,76.6,89.3,81.5,76.4,99,98,82,30.11,30.00,4,1,7,0.00
2013-9-1,99.1,89.1,80.8,90.4,86.4,80.5,99,92,74,30.08,30.00,7,2,9,0.00
2013-9-14,92.7,82.0,75.9,81.5,78.4,75.6,99,89,70,30.14,29.99,8,2,8,0.00
2013-9-15,95.9,83.8,73.0,85.4,79.3,72.7,99,87,66,30.21,30.12,5,2,5,0.00
2013-9-16,95.9,80.5,-26.7,90.5,79.3,-26.9,99,96,82,30.23,30.14,8,2,8,0.66
2013-9-17,97.7,82.3,72.7,89.8,80.8,72.4,99,96,78,30.23,30.13,4,1,4,0.01
2013-9-18,86.7,80.1,75.2,85.0,79.6,74.9,99,98,92,30.25,30.17,11,3,11,0.01
2013-9-19,91.2,81.0,73.2,84.1,79.0,72.9,99,94,78,30.24,30.15,9,3,9,0.09
2013-9-20,92.8,83.6,74.5,89.8,82.6,74.2,99,97,82,30.18,30.02,4,2,6,0.00
2013-9-28,87.8,76.1,65.8,78.0,72.1,65.6,99,88,71,30.25,30.15,8,2,8,0.00
2013-9-29,88.7,75.8,64.8,77.7,72.9,64.5,99,92,69,30.22,30.10,6,2,6,0.00
2013-9-30,85.3,76.5,69.6,80.3,75.0,69.3,99,96,75,30.17,30.08,3,1,3,0.00
2013-10-1,90.3,79.0,69.3,84.8,77.7,69.0,99,96,82,30.22,30.13,4,2,4,0.00
2013-10-2,81.3,76.6,73.4,81.0,76.3,73.1,99,99,99,30.23,30.17,8,2,8,0.01
2013-10-3,90.0,80.0,71.1,88.3,79.7,70.8,99,99,95,30.23,30.14,7,3,7,0.00
2013-10-4,93.6,85.0,75.7,87.9,81.9,75.4,99,91,74,30.23,30.15,8,3,10,0.00
2013-11-23,70.7,63.5,52.5,70.4,63.0,48.5,99,98,86,30.39,30.29,9,3,9,0.00
2013-11-24,55.6,49.9,42.8,47.6,38.6,35.1,85,66,52,30.50,30.40,11,5,11,0.00
2013-11-25,62.8,52.5,44.1,62.5,49.5,38.5,99,90,76,30.45,30.02,15,4,15,0.24
2013-11-26,67.8,56.8,45.9,67.5,56.5,45.6,99,99,99,30.06,29.82,12,4,12,2.23
2013-11-27,48.0,42.4,33.8,45.1,37.5,29.2,99,84,64,30.51,30.03,10,4,10,0.04
2013-11-28,52.2,39.5,28.8,37.6,31.4,-3.0,99,77,10,30.61,30.50,52,3,52,0.00
2013-11-29,60.6,50.3,30.9,41.7,37.3,30.7,99,65,43,30.67,30.55,8,2,8,0.00
2013-12-4,77.2,69.9,63.1,76.9,69.6,62.9,99,99,99,30.14,30.02,5,1,5,0.61
2013-12-5,78.6,75.0,73.0,78.3,74.7,72.7,99,99,99,30.23,30.14,8,3,8,0.00
2013-12-10,48.7,45.3,41.4,48.3,45.1,41.1,99,99,97,30.50,30.39,12,4,14,0.09
2013-12-11,46.8,41.3,38.5,42.5,40.3,38.2,99,96,85,30.53,30.45,7,3,7,0.00
2013-12-12,57.6,49.3,39.2,47.1,39.2,33.4,90,70,45,30.63,30.52,8,3,8,0.00
2013-12-13,60.1,51.5,36.9,57.2,47.5,30.4,99,87,67,30.51,30.26,9,3,9,0.00
2013-12-14,77.5,72.9,67.3,77.3,72.6,67.0,99,99,99,30.07,29.98,7,3,8,0.00
2013-12-15,48.0,44.0,38.1,45.7,43.0,37.9,99,96,89,30.43,30.30,9,3,9,0.01
2013-12-16,42.3,35.6,34.0,42.0,35.3,33.7,99,99,99,30.47,30.42,4,2,6,0.01
2013-12-17,63.9,50.8,37.0,50.5,44.8,36.8,99,83,51,30.48,30.37,3,1,3,0.00
2013-12-18,63.5,51.6,43.7,50.8,45.9,43.4,99,83,51,30.52,30.41,8,1,8,0.00
2013-12-19,66.6,59.4,42.8,65.7,58.4,42.5,99,96,84,30.43,30.31,7,3,8,0.00
2013-12-20,72.7,69.3,67.3,72.4,69.0,67.0,99,99,99,30.30,30.18,8,2,10,0.00
2013-12-21,73.6,71.2,67.6,73.3,71.0,67.4,99,99,99,30.18,30.11,8,4,8,0.00
2013-12-22,77.4,69.5,55.0,77.1,69.3,54.8,99,99,99,30.25,30.05,8,4,8,0.35
2013-12-23,56.5,49.5,41.2,56.2,49.2,40.9,99,99,99,30.52,30.23,10,4,11,0.51
2013-12-24,52.2,41.9,33.3,40.6,37.0,33.0,99,84,59,30.63,30.50,8,3,8,0.00
2013-12-25,52.2,42.8,32.9,42.0,36.6,31.0,98,80,56,30.54,30.42,5,2,5,0.00
2013-12-26,57.7,51.2,39.4,48.8,46.5,39.1,99,84,69,30.48,30.39,11,3,11,0.00
2013-12-27,61.7,52.9,43.7,49.5,46.2,42.3,99,79,63,30.51,30.40,7,3,7,0.00
2013-12-28,54.1,51.3,48.4,53.5,50.8,47.8,99,98,79,30.40,30.04,7,3,7,1.33
2013-12-29,58.1,50.6,45.9,57.8,50.3,45.6,99,99,99,30.26,30.05,6,2,6,0.00
2013-12-30,61.0,51.3,41.9,60.0,50.6,41.6,99,98,84,30.41,30.25,2,0,2,0.00
2013-12-31,52.2,46.6,44.4,51.9,46.3,44.2,99,99,99,30.55,30.41,5,2,10,0.00
2014-1-1,61.5,53.1,45.0,61.2,52.9,44.7,99,99,99,30.47,30.25,4,1,5,0.07
2014-1-2,60.3,57.5,54.3,60.0,57.3,54.1,99,99,99,30.27,29.80,8,2,11,0.43